Location: Auttagershofen
(48.1940°N, 10.0237°E)
Time: 21:44:32
(UTC+00:00)

Lacrosse 5 rocket - Pass Details

Date: 20 April 2026
Orbit: 390 x 471 km, 57.0° (Epoch: 19 May)

Event Time Altitude Azimuth Distance (km) Brightness Sun altitude
Rises 20:03:14 0° 300° (WNW) 2,293 6.2 -16.1°
Reaches altitude 10° 20:05:47 10° 321° (NW) 1,432 4.7 -16.4°
Maximum altitude 20:07:59 17° 5° (N) 1,082 3.3 -16.7°
Drops below altitude 10° 20:10:11 10° 49° (NE) 1,432 3.4 -17.0°
Enters shadow 20:10:32 - 53° (NE) 1,534 3.5 -17.0°
